Wetterdaten: Freitag, 22.04.2016
Datum Zeit Auen-Temp. Temp gefhlt Luftfeuchte Luftdruck Regen Wind Richtung Richtung Sonnenschein Taupunkt Windben
22.04.2016 00:00 6,7 C 6,3 C 75 % 1017,8 hPa 0,0 mm 0,0 km/h (0 Bft) SO 135 0 min 2,6 C 0,0 km/h (0 Bft)
22.04.2016 00:05 6,7 C 6,3 C 75 % 1017,8 hPa 0,0 mm 0,0 km/h (0 Bft) O-NO 67 0 min 2,6 C 0,0 km/h (0 Bft)
22.04.2016 00:10 6,6 C 6,2 C 76 % 1017,8 hPa 0,0 mm 0,0 km/h (0 Bft) O-SO 112 0 min 2,7 C 0,0 km/h (0 Bft)
22.04.2016 00:15 6,3 C 6,1 C 76 % 1017,8 hPa 0,0 mm 0,0 km/h (0 Bft) W 270 0 min 2,4 C 0,0 km/h (0 Bft)
22.04.2016 00:20 6,4 C 6,2 C 77 % 1017,8 hPa 0,0 mm 0,0 km/h (0 Bft) S 180 0 min 2,7 C 0,0 km/h (0 Bft)
22.04.2016 00:25 6,6 C 6,1 C 79 % 1017,8 hPa 0,0 mm 0,0 km/h (0 Bft) S 180 0 min 3,2 C 0,0 km/h (0 Bft)
22.04.2016 00:30 6,3 C 6,1 C 77 % 1017,8 hPa 0,0 mm 0,0 km/h (0 Bft) S 180 0 min 2,6 C 0,0 km/h (0 Bft)
22.04.2016 00:35 6,0 C 5,8 C 76 % 1017,7 hPa 0,0 mm 0,3 km/h (0 Bft) S-SO 157 0 min 2,1 C 4,2 km/h (1 Bft)
22.04.2016 00:40 6,2 C 6,0 C 77 % 1017,7 hPa 0,0 mm 0,6 km/h (0 Bft) S 180 0 min 2,5 C 0,0 km/h (0 Bft)
22.04.2016 00:45 6,5 C 6,2 C 78 % 1017,7 hPa 0,0 mm 0,6 km/h (0 Bft) S-SO 157 0 min 2,9 C 3,3 km/h (1 Bft)
22.04.2016 00:50 6,6 C 6,3 C 80 % 1017,7 hPa 0,0 mm 0,6 km/h (0 Bft) S-SO 157 0 min 3,4 C 0,0 km/h (0 Bft)
22.04.2016 00:55 6,5 C 6,3 C 80 % 1017,7 hPa 0,0 mm 0,6 km/h (0 Bft) S-SO 157 0 min 3,3 C 3,0 km/h (1 Bft)
22.04.2016 01:00 6,5 C 6,3 C 80 % 1017,7 hPa 0,0 mm 0,6 km/h (0 Bft) S 180 0 min 3,3 C 0,0 km/h (0 Bft)
22.04.2016 01:05 6,4 C 6,2 C 80 % 1017,7 hPa 0,0 mm 0,6 km/h (0 Bft) SO 135 0 min 3,2 C 0,0 km/h (0 Bft)
22.04.2016 01:10 6,4 C 6,2 C 80 % 1017,7 hPa 0,0 mm 0,6 km/h (0 Bft) SO 135 0 min 3,2 C 0,0 km/h (0 Bft)
22.04.2016 01:15 6,3 C 6,1 C 80 % 1017,4 hPa 0,0 mm 1,2 km/h (1 Bft) S 180 0 min 3,1 C 5,4 km/h (1 Bft)
22.04.2016 01:20 6,0 C 6,0 C 77 % 1017,4 hPa 0,0 mm 1,2 km/h (1 Bft) SO 135 0 min 2,3 C 3,6 km/h (1 Bft)
22.04.2016 01:25 6,1 C 6,0 C 78 % 1017,4 hPa 0,0 mm 2,1 km/h (1 Bft) S-SO 157 0 min 2,6 C 6,0 km/h (2 Bft)
22.04.2016 01:30 6,2 C 6,0 C 81 % 1017,4 hPa 0,0 mm 3,0 km/h (1 Bft) S-SO 157 0 min 3,2 C 4,8 km/h (1 Bft)
22.04.2016 01:35 6,2 C 6,2 C 78 % 1017,2 hPa 0,0 mm 4,5 km/h (1 Bft) S 180 0 min 2,7 C 6,9 km/h (2 Bft)
22.04.2016 01:40 6,0 C 6,2 C 78 % 1017,2 hPa 0,0 mm 4,8 km/h (1 Bft) S 180 0 min 2,5 C 6,9 km/h (2 Bft)
22.04.2016 01:45 6,3 C 6,4 C 78 % 1017,2 hPa 0,0 mm 3,9 km/h (1 Bft) S 180 0 min 2,8 C 8,9 km/h (2 Bft)
22.04.2016 01:50 6,4 C 6,4 C 78 % 1017,2 hPa 0,0 mm 3,3 km/h (1 Bft) SO 135 0 min 2,8 C 4,2 km/h (1 Bft)
22.04.2016 01:53 6,3 C 6,4 C 78 % 1017,2 hPa 0,0 mm 3,3 km/h (1 Bft) S-SO 157 0 min 2,8 C 5,7 km/h (1 Bft)
22.04.2016 01:54 6,3 C 6,4 C 78 % 1017,2 hPa 0,0 mm 3,3 km/h (1 Bft) S-SO 157 0 min 2,8 C 5,7 km/h (1 Bft)
22.04.2016 01:55 6,3 C 6,4 C 78 % 1017,2 hPa 0,0 mm 3,3 km/h (1 Bft) S-SO 157 0 min 2,8 C 5,7 km/h (1 Bft)
22.04.2016 02:00 6,3 C 6,3 C 80 % 1017,2 hPa 0,0 mm 3,9 km/h (1 Bft) S 180 0 min 3,1 C 4,8 km/h (1 Bft)
22.04.2016 02:05 6,1 C 6,1 C 80 % 1017,2 hPa 0,0 mm 2,4 km/h (1 Bft) O-SO 112 0 min 2,9 C 0,0 km/h (0 Bft)
22.04.2016 02:10 5,9 C 5,9 C 81 % 1017,2 hPa 0,0 mm 1,8 km/h (1 Bft) O-NO 67 0 min 2,9 C 0,0 km/h (0 Bft)
22.04.2016 02:15 5,3 C 5,2 C 80 % 1017,4 hPa 0,0 mm 0,0 km/h (0 Bft) N-NW 337 0 min 2,1 C 0,0 km/h (0 Bft)
22.04.2016 02:20 5,4 C 5,1 C 81 % 1017,4 hPa 0,0 mm 0,3 km/h (0 Bft) SW 225 0 min 2,4 C 4,2 km/h (1 Bft)
22.04.2016 02:25 5,6 C 5,3 C 79 % 1017,4 hPa 0,0 mm 0,3 km/h (0 Bft) O-NO 67 0 min 2,3 C 0,0 km/h (0 Bft)
22.04.2016 02:30 5,5 C 5,2 C 82 % 1017,4 hPa 0,0 mm 0,3 km/h (0 Bft) N-NW 337 0 min 2,7 C 0,0 km/h (0 Bft)
22.04.2016 02:35 5,2 C 4,9 C 82 % 1017,2 hPa 0,0 mm 0,0 km/h (0 Bft) SW 225 0 min 2,4 C 0,0 km/h (0 Bft)
22.04.2016 02:40 5,2 C 4,8 C 82 % 1017,2 hPa 0,0 mm 0,0 km/h (0 Bft) SO 135 0 min 2,4 C 0,0 km/h (0 Bft)
22.04.2016 02:45 5,2 C 4,8 C 79 % 1017,2 hPa 0,0 mm 0,0 km/h (0 Bft) O-NO 67 0 min 1,9 C 0,0 km/h (0 Bft)
22.04.2016 02:50 5,2 C 4,7 C 83 % 1017,2 hPa 0,0 mm 0,0 km/h (0 Bft) O-SO 112 0 min 2,6 C 0,0 km/h (0 Bft)
22.04.2016 02:55 5,1 C 4,7 C 84 % 1017,2 hPa 0,0 mm 0,0 km/h (0 Bft) O-NO 67 0 min 2,6 C 0,0 km/h (0 Bft)
22.04.2016 03:00 5,3 C 4,8 C 84 % 1017,2 hPa 0,0 mm 0,9 km/h (0 Bft) S 180 0 min 2,8 C 10,1 km/h (2 Bft)
22.04.2016 03:05 5,5 C 5,2 C 79 % 1017,2 hPa 0,0 mm 3,0 km/h (1 Bft) SW 225 0 min 2,2 C 12,8 km/h (3 Bft)
22.04.2016 03:10 5,7 C 5,5 C 80 % 1017,2 hPa 0,0 mm 4,2 km/h (1 Bft) N-NW 337 0 min 2,5 C 0,0 km/h (0 Bft)
22.04.2016 03:15 5,8 C 5,7 C 80 % 1017,1 hPa 0,0 mm 0,9 km/h (0 Bft) SO 135 0 min 2,6 C 0,0 km/h (0 Bft)
22.04.2016 03:20 5,8 C 5,6 C 84 % 1017,1 hPa 0,0 mm 0,0 km/h (0 Bft) NO 45 0 min 3,3 C 0,0 km/h (0 Bft)
22.04.2016 03:25 5,4 C 5,2 C 83 % 1017,1 hPa 0,0 mm 0,0 km/h (0 Bft) SO 135 0 min 2,7 C 0,0 km/h (0 Bft)
22.04.2016 03:30 5,5 C 5,2 C 84 % 1017,1 hPa 0,0 mm 0,0 km/h (0 Bft) SO 135 0 min 3,0 C 0,0 km/h (0 Bft)
22.04.2016 03:35 5,3 C 5,1 C 84 % 1017,1 hPa 0,0 mm 0,3 km/h (0 Bft) SW 225 0 min 2,8 C 3,3 km/h (1 Bft)
22.04.2016 03:40 5,2 C 5,1 C 79 % 1017,1 hPa 0,0 mm 0,9 km/h (0 Bft) S 180 0 min 1,9 C 5,1 km/h (1 Bft)
22.04.2016 03:45 5,2 C 5,0 C 84 % 1017,1 hPa 0,0 mm 0,9 km/h (0 Bft) O-NO 67 0 min 2,7 C 0,0 km/h (0 Bft)
22.04.2016 03:50 5,0 C 4,8 C 84 % 1017,1 hPa 0,0 mm 0,6 km/h (0 Bft) SO 135 0 min 2,5 C 0,0 km/h (0 Bft)
22.04.2016 03:55 5,0 C 4,6 C 84 % 1017,0 hPa 0,0 mm 0,0 km/h (0 Bft) O-SO 112 0 min 2,5 C 0,0 km/h (0 Bft)
22.04.2016 04:00 4,6 C 4,3 C 84 % 1017,0 hPa 0,0 mm 0,0 km/h (0 Bft) SO 135 0 min 2,1 C 0,0 km/h (0 Bft)
22.04.2016 04:05 4,4 C 4,1 C 84 % 1017,0 hPa 0,0 mm 0,0 km/h (0 Bft) O-NO 67 0 min 1,9 C 0,0 km/h (0 Bft)
22.04.2016 04:10 4,2 C 3,9 C 83 % 1017,0 hPa 0,0 mm 0,0 km/h (0 Bft) O-NO 67 0 min 1,6 C 0,0 km/h (0 Bft)
22.04.2016 04:15 4,7 C 4,2 C 85 % 1016,8 hPa 0,0 mm 0,0 km/h (0 Bft) SO 135 0 min 2,4 C 0,0 km/h (0 Bft)
22.04.2016 04:20 4,5 C 4,1 C 85 % 1016,8 hPa 0,0 mm 0,0 km/h (0 Bft) O 90 0 min 2,2 C 0,0 km/h (0 Bft)
22.04.2016 04:25 4,5 C 4,0 C 85 % 1016,8 hPa 0,0 mm 0,0 km/h (0 Bft) O-SO 112 0 min 2,2 C 0,0 km/h (0 Bft)
22.04.2016 04:30 4,7 C 4,2 C 86 % 1016,8 hPa 0,0 mm 0,0 km/h (0 Bft) O-NO 67 0 min 2,6 C 0,0 km/h (0 Bft)
22.04.2016 04:35 4,3 C 3,9 C 86 % 1016,7 hPa 0,0 mm 0,0 km/h (0 Bft) N-NO 22 0 min 2,2 C 0,0 km/h (0 Bft)
22.04.2016 04:40 3,9 C 3,6 C 85 % 1016,7 hPa 0,0 mm 0,0 km/h (0 Bft) O-NO 67 0 min 1,6 C 0,0 km/h (0 Bft)
22.04.2016 04:45 3,7 C 3,4 C 85 % 1016,7 hPa 0,0 mm 0,0 km/h (0 Bft) NO 45 0 min 1,4 C 0,0 km/h (0 Bft)
22.04.2016 04:50 3,7 C 3,4 C 85 % 1016,7 hPa 0,0 mm 0,0 km/h (0 Bft) O 90 0 min 1,4 C 0,0 km/h (0 Bft)
22.04.2016 04:53 3,6 C 3,3 C 85 % 1016,6 hPa 0,0 mm 0,0 km/h (0 Bft) NO 45 0 min 1,3 C 0,0 km/h (0 Bft)
22.04.2016 04:55 3,6 C 3,3 C 85 % 1016,6 hPa 0,0 mm 0,0 km/h (0 Bft) NO 45 0 min 1,3 C 0,0 km/h (0 Bft)
22.04.2016 05:00 3,6 C 3,2 C 86 % 1016,6 hPa 0,0 mm 0,0 km/h (0 Bft) S-SO 157 0 min 1,5 C 0,0 km/h (0 Bft)
22.04.2016 05:05 3,5 C 3,2 C 86 % 1016,6 hPa 0,0 mm 0,0 km/h (0 Bft) S-SO 157 0 min 1,4 C 0,0 km/h (0 Bft)
22.04.2016 05:10 3,6 C 3,3 C 86 % 1016,6 hPa 0,0 mm 0,0 km/h (0 Bft) N-NO 22 0 min 1,5 C 0,0 km/h (0 Bft)
22.04.2016 05:15 3,3 C 3,0 C 86 % 1016,6 hPa 0,0 mm 0,0 km/h (0 Bft) O-NO 67 0 min 1,2 C 0,0 km/h (0 Bft)
22.04.2016 05:20 3,2 C 2,9 C 86 % 1016,6 hPa 0,0 mm 0,0 km/h (0 Bft) SO 135 0 min 1,1 C 0,0 km/h (0 Bft)
22.04.2016 05:25 3,2 C 2,9 C 86 % 1016,6 hPa 0,0 mm 0,0 km/h (0 Bft) NO 45 0 min 1,1 C 0,0 km/h (0 Bft)
22.04.2016 05:30 3,4 C 3,0 C 87 % 1016,6 hPa 0,0 mm 0,0 km/h (0 Bft) O-NO 67 0 min 1,4 C 0,0 km/h (0 Bft)
22.04.2016 05:35 3,6 C 3,4 C 82 % 1016,5 hPa 0,0 mm 0,9 km/h (0 Bft) SO 135 0 min 0,8 C 0,0 km/h (0 Bft)
22.04.2016 05:40 3,5 C 3,3 C 88 % 1016,5 hPa 0,0 mm 0,9 km/h (0 Bft) O-NO 67 0 min 1,7 C 0,0 km/h (0 Bft)
22.04.2016 05:45 3,5 C 3,2 C 88 % 1016,5 hPa 0,0 mm 0,0 km/h (0 Bft) O-SO 112 0 min 1,7 C 0,0 km/h (0 Bft)
22.04.2016 05:50 3,4 C 3,1 C 88 % 1016,5 hPa 0,0 mm 0,0 km/h (0 Bft) O-SO 112 0 min 1,6 C 0,0 km/h (0 Bft)
22.04.2016 05:55 3,4 C 3,1 C 88 % 1016,6 hPa 0,0 mm 0,0 km/h (0 Bft) N-NW 337 0 min 1,6 C 0,0 km/h (0 Bft)
22.04.2016 06:00 3,7 C 3,3 C 88 % 1016,6 hPa 0,0 mm 0,0 km/h (0 Bft) N-NW 337 0 min 1,9 C 0,0 km/h (0 Bft)
22.04.2016 06:05 3,6 C 3,2 C 88 % 1016,6 hPa 0,0 mm 0,0 km/h (0 Bft) S-SO 157 0 min 1,8 C 0,0 km/h (0 Bft)
22.04.2016 06:10 3,6 C 3,3 C 89 % 1016,6 hPa 0,0 mm 0,0 km/h (0 Bft) O-NO 67 0 min 2,0 C 0,0 km/h (0 Bft)
22.04.2016 06:15 3,5 C 3,2 C 89 % 1016,7 hPa 0,0 mm 0,0 km/h (0 Bft) N-NO 22 0 min 1,9 C 0,0 km/h (0 Bft)
22.04.2016 06:20 3,4 C 3,2 C 88 % 1016,7 hPa 0,0 mm 0,0 km/h (0 Bft) N-NW 337 0 min 1,6 C 0,0 km/h (0 Bft)
22.04.2016 06:25 3,5 C 3,2 C 88 % 1016,7 hPa 0,0 mm 0,0 km/h (0 Bft) NO 45 0 min 1,7 C 0,0 km/h (0 Bft)
22.04.2016 06:30 3,6 C 3,3 C 89 % 1016,7 hPa 0,0 mm 0,0 km/h (0 Bft) O 90 0 min 2,0 C 0,0 km/h (0 Bft)
22.04.2016 06:35 3,4 C 3,2 C 88 % 1016,7 hPa 0,0 mm 0,0 km/h (0 Bft) NW 315 0 min 1,6 C 0,0 km/h (0 Bft)
22.04.2016 06:40 3,4 C 3,2 C 88 % 1016,7 hPa 0,0 mm 0,0 km/h (0 Bft) N-NO 22 0 min 1,6 C 0,0 km/h (0 Bft)
22.04.2016 06:45 3,2 C 3,1 C 88 % 1016,7 hPa 0,0 mm 0,0 km/h (0 Bft) NO 45 0 min 1,4 C 0,0 km/h (0 Bft)
22.04.2016 06:50 3,3 C 3,2 C 88 % 1016,7 hPa 0,0 mm 0,0 km/h (0 Bft) N-NO 22 0 min 1,5 C 0,0 km/h (0 Bft)
22.04.2016 06:55 3,3 C 3,3 C 88 % 1016,8 hPa 0,0 mm 0,0 km/h (0 Bft) N-NO 22 0 min 1,5 C 0,0 km/h (0 Bft)
22.04.2016 07:00 3,3 C 3,4 C 88 % 1016,8 hPa 0,0 mm 0,0 km/h (0 Bft) O-NO 67 0 min 1,5 C 0,0 km/h (0 Bft)
22.04.2016 07:05 3,4 C 3,6 C 88 % 1016,8 hPa 0,0 mm 0,0 km/h (0 Bft) O-SO 112 0 min 1,6 C 0,0 km/h (0 Bft)
22.04.2016 07:10 3,5 C 3,7 C 88 % 1016,8 hPa 0,0 mm 0,0 km/h (0 Bft) N-NO 22 0 min 1,7 C 0,0 km/h (0 Bft)
22.04.2016 07:15 3,7 C 3,9 C 88 % 1016,8 hPa 0,0 mm 0,0 km/h (0 Bft) O-NO 67 0 min 1,9 C 0,0 km/h (0 Bft)
22.04.2016 07:20 3,8 C 4,3 C 83 % 1016,8 hPa 0,0 mm 0,0 km/h (0 Bft) O-NO 67 0 min 1,2 C 0,0 km/h (0 Bft)
22.04.2016 07:25 4,1 C 5,3 C 83 % 1016,8 hPa 0,0 mm 0,0 km/h (0 Bft) O-NO 67 0 min 1,5 C 0,0 km/h (0 Bft)
22.04.2016 07:30 4,3 C 5,9 C 88 % 1016,8 hPa 0,0 mm 0,0 km/h (0 Bft) O-SO 112 0 min 2,5 C 0,0 km/h (0 Bft)
22.04.2016 07:35 4,6 C 8,2 C 83 % 1016,9 hPa 0,0 mm 0,0 km/h (0 Bft) O-NO 67 5 min 2,0 C 0,0 km/h (0 Bft)
22.04.2016 07:40 4,8 C 9,7 C 83 % 1016,9 hPa 0,0 mm 0,0 km/h (0 Bft) O-NO 67 5 min 2,2 C 0,0 km/h (0 Bft)
22.04.2016 07:45 5,5 C 10,8 C 83 % 1016,9 hPa 0,0 mm 0,0 km/h (0 Bft) NO 45 5 min 2,8 C 0,0 km/h (0 Bft)
22.04.2016 07:50 6,3 C 11,3 C 83 % 1016,9 hPa 0,0 mm 0,0 km/h (0 Bft) N-NW 337 5 min 3,6 C 0,0 km/h (0 Bft)
22.04.2016 07:53 7,4 C 13,9 C 82 % 1016,9 hPa 0,0 mm 0,0 km/h (0 Bft) O-NO 67 3 min 4,5 C 0,0 km/h (0 Bft)
22.04.2016 07:56 7,4 C 13,9 C 82 % 1016,9 hPa 0,0 mm 0,0 km/h (0 Bft) O-NO 67 3 min 4,5 C 0,0 km/h (0 Bft)
22.04.2016 08:00 8,1 C 14,7 C 81 % 1016,9 hPa 0,0 mm 0,0 km/h (0 Bft) O-NO 67 4 min 5,0 C 0,0 km/h (0 Bft)
22.04.2016 08:05 8,8 C 15,9 C 85 % 1016,9 hPa 0,0 mm 0,0 km/h (0 Bft) NO 45 5 min 6,4 C 0,0 km/h (0 Bft)
22.04.2016 08:10 9,0 C 16,3 C 82 % 1016,9 hPa 0,0 mm 0,0 km/h (0 Bft) O-NO 67 5 min 6,1 C 0,0 km/h (0 Bft)
22.04.2016 08:15 9,6 C 17,6 C 81 % 1016,8 hPa 0,0 mm 0,0 km/h (0 Bft) O-NO 67 5 min 6,5 C 0,0 km/h (0 Bft)
22.04.2016 08:20 10,2 C 18,3 C 80 % 1016,8 hPa 0,0 mm 0,0 km/h (0 Bft) NO 45 5 min 6,9 C 0,0 km/h (0 Bft)
22.04.2016 08:25 10,4 C 19,3 C 77 % 1016,8 hPa 0,0 mm 0,0 km/h (0 Bft) O-NO 67 5 min 6,5 C 0,0 km/h (0 Bft)
22.04.2016 08:30 10,8 C 19,5 C 76 % 1016,8 hPa 0,0 mm 0,0 km/h (0 Bft) O-NO 67 5 min 6,7 C 0,0 km/h (0 Bft)
22.04.2016 08:35 11,3 C 20,8 C 74 % 1017,0 hPa 0,0 mm 0,0 km/h (0 Bft) O-NO 67 5 min 6,8 C 0,0 km/h (0 Bft)
22.04.2016 08:40 11,8 C 21,0 C 74 % 1017,0 hPa 0,0 mm 0,0 km/h (0 Bft) O-NO 67 5 min 7,3 C 0,0 km/h (0 Bft)
22.04.2016 08:45 12,5 C 21,5 C 73 % 1017,0 hPa 0,0 mm 0,0 km/h (0 Bft) O-NO 67 5 min 7,8 C 0,0 km/h (0 Bft)
22.04.2016 08:50 12,9 C 21,6 C 71 % 1017,0 hPa 0,0 mm 0,0 km/h (0 Bft) O-NO 67 5 min 7,8 C 0,0 km/h (0 Bft)
22.04.2016 08:55 13,4 C 22,0 C 70 % 1017,4 hPa 0,0 mm 0,0 km/h (0 Bft) O-NO 67 5 min 8,0 C 0,0 km/h (0 Bft)
22.04.2016 09:00 14,2 C 22,4 C 69 % 1017,4 hPa 0,0 mm 0,3 km/h (0 Bft) O-NO 67 5 min 8,6 C 4,8 km/h (1 Bft)
22.04.2016 09:05 14,3 C 21,7 C 68 % 1017,4 hPa 0,0 mm 2,1 km/h (1 Bft) O-NO 67 5 min 8,5 C 7,7 km/h (2 Bft)
22.04.2016 09:10 14,5 C 21,4 C 67 % 1017,4 hPa 0,0 mm 3,0 km/h (1 Bft) N-NW 337 5 min 8,4 C 3,9 km/h (1 Bft)
22.04.2016 09:15 14,5 C 21,4 C 66 % 1017,6 hPa 0,0 mm 2,4 km/h (1 Bft) NO 45 5 min 8,2 C 5,1 km/h (1 Bft)
22.04.2016 09:20 14,5 C 21,1 C 67 % 1017,6 hPa 0,0 mm 0,9 km/h (0 Bft) N-NO 22 5 min 8,4 C 6,3 km/h (2 Bft)
22.04.2016 09:25 14,8 C 20,6 C 66 % 1017,6 hPa 0,0 mm 2,4 km/h (1 Bft) W-NW 292 5 min 8,5 C 6,6 km/h (2 Bft)
22.04.2016 09:30 14,5 C 20,4 C 65 % 1017,6 hPa 0,0 mm 3,0 km/h (1 Bft) W 270 5 min 8,0 C 7,2 km/h (2 Bft)
22.04.2016 09:35 14,3 C 19,1 C 64 % 1017,9 hPa 0,0 mm 3,0 km/h (1 Bft) N-NO 22 5 min 7,6 C 8,0 km/h (2 Bft)
22.04.2016 09:40 14,3 C 18,4 C 64 % 1017,9 hPa 0,0 mm 2,1 km/h (1 Bft) NW 315 5 min 7,6 C 0,0 km/h (0 Bft)
22.04.2016 09:45 14,4 C 17,9 C 64 % 1017,9 hPa 0,0 mm 2,4 km/h (1 Bft) NW 315 5 min 7,7 C 0,0 km/h (0 Bft)
22.04.2016 09:50 14,5 C 17,9 C 64 % 1017,9 hPa 0,0 mm 1,8 km/h (1 Bft) W-SW 247 5 min 7,8 C 6,3 km/h (2 Bft)
22.04.2016 09:55 14,4 C 18,1 C 63 % 1017,9 hPa 0,0 mm 3,9 km/h (1 Bft) NW 315 5 min 7,4 C 12,5 km/h (3 Bft)
22.04.2016 10:00 14,3 C 18,1 C 61 % 1017,9 hPa 0,0 mm 6,0 km/h (2 Bft) W 270 5 min 6,9 C 7,7 km/h (2 Bft)
22.04.2016 10:05 14,5 C 18,4 C 62 % 1017,9 hPa 0,0 mm 6,9 km/h (2 Bft) W-NW 292 0 min 7,3 C 6,3 km/h (2 Bft)
22.04.2016 10:10 14,7 C 18,9 C 61 % 1017,9 hPa 0,0 mm 6,0 km/h (2 Bft) SW 225 5 min 7,3 C 4,8 km/h (1 Bft)
22.04.2016 10:15 14,6 C 19,5 C 61 % 1017,7 hPa 0,0 mm 6,9 km/h (2 Bft) W 270 5 min 7,2 C 13,4 km/h (3 Bft)
22.04.2016 10:20 14,7 C 19,0 C 61 % 1017,7 hPa 0,0 mm 8,0 km/h (2 Bft) W 270 5 min 7,3 C 12,5 km/h (3 Bft)
22.04.2016 10:25 14,6 C 17,9 C 60 % 1017,7 hPa 0,0 mm 9,8 km/h (2 Bft) NW 315 5 min 6,9 C 20,3 km/h (4 Bft)
22.04.2016 10:30 14,6 C 17,8 C 60 % 1017,7 hPa 0,0 mm 9,2 km/h (2 Bft) NW 315 5 min 6,9 C 7,5 km/h (2 Bft)
22.04.2016 10:35 14,6 C 17,6 C 60 % 1017,8 hPa 0,0 mm 8,6 km/h (2 Bft) W 270 0 min 6,9 C 4,2 km/h (1 Bft)
22.04.2016 10:40 14,6 C 17,6 C 60 % 1017,8 hPa 0,0 mm 9,2 km/h (2 Bft) N-NW 337 0 min 6,9 C 14,6 km/h (3 Bft)
22.04.2016 10:45 14,6 C 17,5 C 59 % 1017,8 hPa 0,0 mm 10,4 km/h (2 Bft) W 270 0 min 6,7 C 20,9 km/h (4 Bft)
22.04.2016 10:50 14,6 C 17,3 C 59 % 1017,8 hPa 0,0 mm 10,4 km/h (2 Bft) W-SW 247 0 min 6,7 C 10,4 km/h (2 Bft)
22.04.2016 10:55 14,7 C 17,3 C 59 % 1017,8 hPa 0,0 mm 8,6 km/h (2 Bft) W 270 0 min 6,8 C 9,5 km/h (2 Bft)
22.04.2016 10:57 14,7 C 17,3 C 59 % 1017,8 hPa 0,0 mm 8,6 km/h (2 Bft) W 270 0 min 6,8 C 9,5 km/h (2 Bft)
22.04.2016 11:00 14,8 C 17,6 C 59 % 1017,8 hPa 0,0 mm 9,2 km/h (2 Bft) W-SW 247 0 min 6,9 C 20,9 km/h (4 Bft)
22.04.2016 11:05 14,8 C 17,7 C 59 % 1017,8 hPa 0,0 mm 10,4 km/h (2 Bft) W 270 0 min 6,9 C 11,0 km/h (2 Bft)
22.04.2016 11:10 14,8 C 17,9 C 59 % 1017,8 hPa 0,0 mm 11,0 km/h (2 Bft) W-NW 292 0 min 6,9 C 10,1 km/h (2 Bft)
22.04.2016 11:15 15,0 C 18,0 C 59 % 1017,7 hPa 0,0 mm 8,9 km/h (2 Bft) W 270 0 min 7,1 C 15,5 km/h (3 Bft)
22.04.2016 11:20 15,1 C 17,9 C 59 % 1017,7 hPa 0,0 mm 9,2 km/h (2 Bft) W-NW 292 0 min 7,1 C 17,9 km/h (3 Bft)
22.04.2016 11:25 15,2 C 17,9 C 59 % 1017,7 hPa 0,0 mm 11,3 km/h (2 Bft) W-NW 292 0 min 7,2 C 15,5 km/h (3 Bft)
22.04.2016 11:30 15,4 C 18,0 C 59 % 1017,7 hPa 0,0 mm 11,0 km/h (2 Bft) W-NW 292 0 min 7,4 C 12,5 km/h (3 Bft)
22.04.2016 11:35 15,5 C 18,6 C 59 % 1017,4 hPa 0,0 mm 11,6 km/h (2 Bft) NW 315 0 min 7,5 C 24,7 km/h (4 Bft)
22.04.2016 11:40 15,6 C 18,7 C 59 % 1017,4 hPa 0,0 mm 13,1 km/h (3 Bft) W 270 0 min 7,6 C 19,7 km/h (3 Bft)
22.04.2016 11:45 15,6 C 18,5 C 58 % 1017,4 hPa 0,0 mm 16,4 km/h (3 Bft) W-NW 292 0 min 7,4 C 25,6 km/h (4 Bft)
22.04.2016 11:50 15,7 C 18,3 C 58 % 1017,4 hPa 0,0 mm 15,8 km/h (3 Bft) W 270 0 min 7,5 C 9,8 km/h (2 Bft)
22.04.2016 11:55 16,0 C 19,9 C 57 % 1017,5 hPa 0,0 mm 12,2 km/h (2 Bft) NW 315 0 min 7,5 C 23,8 km/h (4 Bft)
22.04.2016 12:00 16,2 C 20,1 C 57 % 1017,5 hPa 0,0 mm 12,5 km/h (3 Bft) W 270 5 min 7,7 C 12,2 km/h (2 Bft)
22.04.2016 12:05 16,2 C 19,7 C 57 % 1017,5 hPa 0,0 mm 14,0 km/h (3 Bft) W-NW 292 5 min 7,7 C 25,9 km/h (4 Bft)
22.04.2016 12:10 16,7 C 20,0 C 57 % 1017,5 hPa 0,0 mm 14,0 km/h (3 Bft) W-NW 292 0 min 8,1 C 15,2 km/h (3 Bft)
22.04.2016 12:15 16,8 C 20,2 C 56 % 1017,7 hPa 0,0 mm 13,7 km/h (3 Bft) W 270 0 min 8,0 C 26,2 km/h (4 Bft)
22.04.2016 12:20 17,1 C 20,8 C 56 % 1017,7 hPa 0,0 mm 13,1 km/h (3 Bft) NW 315 0 min 8,3 C 11,3 km/h (2 Bft)
22.04.2016 12:25 17,7 C 22,1 C 56 % 1017,7 hPa 0,0 mm 10,4 km/h (2 Bft) W-NW 292 5 min 8,8 C 11,9 km/h (2 Bft)
22.04.2016 12:30 17,6 C 22,2 C 54 % 1017,7 hPa 0,0 mm 11,0 km/h (2 Bft) W 270 5 min 8,2 C 15,5 km/h (3 Bft)
22.04.2016 12:35 17,7 C 22,6 C 54 % 1017,4 hPa 0,0 mm 11,0 km/h (2 Bft) NW 315 5 min 8,3 C 12,8 km/h (3 Bft)
22.04.2016 12:40 18,0 C 22,8 C 55 % 1017,4 hPa 0,0 mm 10,7 km/h (2 Bft) NW 315 5 min 8,8 C 11,6 km/h (2 Bft)
22.04.2016 12:45 18,2 C 23,2 C 54 % 1017,4 hPa 0,0 mm 11,6 km/h (2 Bft) W 270 5 min 8,7 C 29,8 km/h (5 Bft)
22.04.2016 12:50 18,0 C 22,7 C 54 % 1017,4 hPa 0,0 mm 12,8 km/h (3 Bft) NW 315 5 min 8,6 C 18,8 km/h (3 Bft)
22.04.2016 12:55 18,3 C 21,6 C 54 % 1017,2 hPa 0,0 mm 15,8 km/h (3 Bft) W 270 0 min 8,8 C 26,2 km/h (4 Bft)
22.04.2016 13:00 18,0 C 20,8 C 54 % 1017,2 hPa 0,0 mm 16,4 km/h (3 Bft) W-SW 247 0 min 8,6 C 19,4 km/h (3 Bft)
22.04.2016 13:05 18,1 C 20,2 C 54 % 1017,2 hPa 0,0 mm 15,5 km/h (3 Bft) NO 45 0 min 8,6 C 10,1 km/h (2 Bft)
22.04.2016 13:10 18,3 C 20,2 C 53 % 1017,2 hPa 0,0 mm 14,3 km/h (3 Bft) NW 315 0 min 8,6 C 21,2 km/h (4 Bft)
22.04.2016 13:15 18,5 C 21,4 C 53 % 1016,9 hPa 0,0 mm 12,2 km/h (2 Bft) W-NW 292 0 min 8,7 C 25,6 km/h (4 Bft)
22.04.2016 13:20 18,4 C 21,6 C 52 % 1016,9 hPa 0,0 mm 13,4 km/h (3 Bft) W-NW 292 0 min 8,4 C 13,7 km/h (3 Bft)
22.04.2016 13:25 18,5 C 22,2 C 51 % 1016,9 hPa 0,0 mm 14,6 km/h (3 Bft) W 270 0 min 8,2 C 34,3 km/h (5 Bft)
22.04.2016 13:30 18,6 C 22,4 C 52 % 1016,9 hPa 0,0 mm 12,8 km/h (3 Bft) N-NO 22 0 min 8,5 C 13,1 km/h (3 Bft)
22.04.2016 13:35 18,9 C 23,1 C 50 % 1016,7 hPa 0,0 mm 11,6 km/h (2 Bft) W 270 5 min 8,2 C 14,9 km/h (3 Bft)
22.04.2016 13:40 18,9 C 22,7 C 50 % 1016,7 hPa 0,0 mm 12,2 km/h (2 Bft) NW 315 5 min 8,2 C 17,3 km/h (3 Bft)
22.04.2016 13:45 18,8 C 22,1 C 50 % 1016,7 hPa 0,0 mm 12,8 km/h (3 Bft) W 270 0 min 8,2 C 14,6 km/h (3 Bft)
22.04.2016 13:50 18,7 C 22,0 C 50 % 1016,7 hPa 0,0 mm 12,8 km/h (3 Bft) NW 315 0 min 8,1 C 21,8 km/h (4 Bft)
22.04.2016 13:55 18,5 C 21,9 C 49 % 1016,6 hPa 0,0 mm 12,2 km/h (2 Bft) O-NO 67 5 min 7,6 C 14,0 km/h (3 Bft)
22.04.2016 13:58 18,3 C 21,4 C 49 % 1016,6 hPa 0,0 mm 12,5 km/h (3 Bft) W 270 0 min 7,4 C 17,0 km/h (3 Bft)
22.04.2016 14:00 18,3 C 21,4 C 49 % 1016,6 hPa 0,0 mm 12,5 km/h (3 Bft) W 270 0 min 7,4 C 17,0 km/h (3 Bft)
22.04.2016 14:05 17,8 C 21,2 C 49 % 1016,6 hPa 0,0 mm 10,7 km/h (2 Bft) SW 225 5 min 6,9 C 9,5 km/h (2 Bft)
22.04.2016 14:10 17,6 C 20,8 C 50 % 1016,6 hPa 0,0 mm 10,4 km/h (2 Bft) W-NW 292 0 min 7,1 C 9,5 km/h (2 Bft)
22.04.2016 14:15 18,0 C 20,9 C 48 % 1016,2 hPa 0,0 mm 12,5 km/h (3 Bft) NW 315 0 min 6,8 C 14,9 km/h (3 Bft)
22.04.2016 14:20 18,2 C 21,1 C 49 % 1016,2 hPa 0,0 mm 14,0 km/h (3 Bft) W 270 0 min 7,3 C 23,2 km/h (4 Bft)
22.04.2016 14:25 18,5 C 21,2 C 49 % 1016,2 hPa 0,0 mm 15,8 km/h (3 Bft) NW 315 0 min 7,6 C 26,5 km/h (4 Bft)
22.04.2016 14:30 18,6 C 21,1 C 50 % 1016,2 hPa 0,0 mm 15,2 km/h (3 Bft) N 360 0 min 8,0 C 16,1 km/h (3 Bft)
22.04.2016 14:35 18,5 C 21,1 C 50 % 1016,0 hPa 0,0 mm 13,4 km/h (3 Bft) NW 315 0 min 7,9 C 20,0 km/h (4 Bft)
22.04.2016 14:40 18,4 C 21,0 C 49 % 1016,0 hPa 0,0 mm 13,1 km/h (3 Bft) W 270 0 min 7,5 C 23,5 km/h (4 Bft)
22.04.2016 14:45 18,1 C 20,7 C 50 % 1016,0 hPa 0,0 mm 13,4 km/h (3 Bft) NW 315 0 min 7,5 C 10,7 km/h (2 Bft)
22.04.2016 14:50 18,2 C 20,7 C 49 % 1016,0 hPa 0,0 mm 13,1 km/h (3 Bft) NW 315 0 min 7,3 C 17,6 km/h (3 Bft)
22.04.2016 14:55 18,4 C 21,1 C 49 % 1015,6 hPa 0,0 mm 12,8 km/h (3 Bft) N-NW 337 0 min 7,5 C 21,8 km/h (4 Bft)
22.04.2016 15:00 18,8 C 21,6 C 49 % 1015,6 hPa 0,0 mm 11,3 km/h (2 Bft) W-NW 292 0 min 7,9 C 15,2 km/h (3 Bft)
22.04.2016 15:05 18,9 C 22,4 C 49 % 1015,6 hPa 0,0 mm 11,3 km/h (2 Bft) W-SW 247 0 min 7,9 C 16,1 km/h (3 Bft)
22.04.2016 15:10 19,0 C 22,6 C 47 % 1015,6 hPa 0,0 mm 10,7 km/h (2 Bft) NW 315 0 min 7,4 C 8,3 km/h (2 Bft)
22.04.2016 15:15 19,0 C 22,8 C 47 % 1015,1 hPa 0,0 mm 12,8 km/h (3 Bft) N-NW 337 5 min 7,4 C 12,8 km/h (3 Bft)
22.04.2016 15:20 19,0 C 22,9 C 47 % 1015,1 hPa 0,0 mm 13,1 km/h (3 Bft) W 270 0 min 7,4 C 16,1 km/h (3 Bft)
22.04.2016 15:25 19,0 C 23,1 C 46 % 1015,1 hPa 0,0 mm 11,6 km/h (2 Bft) NW 315 5 min 7,1 C 14,3 km/h (3 Bft)
22.04.2016 15:30 18,9 C 22,5 C 47 % 1015,1 hPa 0,0 mm 10,4 km/h (2 Bft) NW 315 0 min 7,3 C 15,2 km/h (3 Bft)
22.04.2016 15:35 18,6 C 21,6 C 46 % 1014,9 hPa 0,0 mm 12,2 km/h (2 Bft) W-NW 292 0 min 6,8 C 12,5 km/h (3 Bft)
22.04.2016 15:40 18,4 C 21,4 C 46 % 1014,9 hPa 0,0 mm 12,5 km/h (3 Bft) W-NW 292 0 min 6,6 C 8,3 km/h (2 Bft)
22.04.2016 15:45 18,4 C 21,4 C 46 % 1014,9 hPa 0,0 mm 9,5 km/h (2 Bft) W-SW 247 0 min 6,6 C 8,9 km/h (2 Bft)
22.04.2016 15:50 18,0 C 21,3 C 46 % 1014,9 hPa 0,0 mm 9,8 km/h (2 Bft) W-NW 292 5 min 6,2 C 23,2 km/h (4 Bft)
22.04.2016 15:55 17,7 C 19,5 C 48 % 1014,5 hPa 0,0 mm 11,6 km/h (2 Bft) N-NW 337 0 min 6,6 C 6,9 km/h (2 Bft)
22.04.2016 16:00 17,6 C 19,1 C 48 % 1014,5 hPa 0,0 mm 10,1 km/h (2 Bft) N-NO 22 0 min 6,5 C 24,1 km/h (4 Bft)
22.04.2016 16:05 17,3 C 19,1 C 49 % 1014,5 hPa 0,0 mm 8,9 km/h (2 Bft) NW 315 0 min 6,5 C 18,5 km/h (3 Bft)
22.04.2016 16:10 17,3 C 18,9 C 49 % 1014,5 hPa 0,0 mm 10,1 km/h (2 Bft) S-SW 202 0 min 6,5 C 20,0 km/h (4 Bft)
22.04.2016 16:15 17,2 C 18,3 C 49 % 1014,4 hPa 0,0 mm 13,1 km/h (3 Bft) NW 315 0 min 6,4 C 25,3 km/h (4 Bft)
22.04.2016 16:20 17,1 C 18,1 C 49 % 1014,4 hPa 0,0 mm 13,7 km/h (3 Bft) NW 315 0 min 6,3 C 15,2 km/h (3 Bft)
22.04.2016 16:25 17,1 C 18,2 C 49 % 1014,4 hPa 0,0 mm 11,6 km/h (2 Bft) NW 315 0 min 6,3 C 14,9 km/h (3 Bft)
22.04.2016 16:30 17,1 C 18,2 C 49 % 1014,4 hPa 0,0 mm 12,5 km/h (3 Bft) NW 315 0 min 6,3 C 28,6 km/h (4 Bft)
22.04.2016 16:35 16,9 C 18,1 C 50 % 1014,0 hPa 0,0 mm 13,1 km/h (3 Bft) W-NW 292 0 min 6,4 C 18,8 km/h (3 Bft)
22.04.2016 16:40 16,8 C 18,0 C 50 % 1014,0 hPa 0,0 mm 11,6 km/h (2 Bft) N 360 0 min 6,3 C 11,3 km/h (2 Bft)
22.04.2016 16:45 16,7 C 17,9 C 49 % 1014,0 hPa 0,0 mm 11,3 km/h (2 Bft) W 270 0 min 5,9 C 15,8 km/h (3 Bft)
22.04.2016 16:50 16,7 C 17,9 C 50 % 1014,0 hPa 0,0 mm 11,0 km/h (2 Bft) W-NW 292 0 min 6,2 C 11,3 km/h (2 Bft)
22.04.2016 16:55 16,7 C 17,9 C 49 % 1013,9 hPa 0,0 mm 12,8 km/h (3 Bft) NW 315 0 min 5,9 C 21,5 km/h (4 Bft)
22.04.2016 16:58 16,8 C 18,1 C 49 % 1013,9 hPa 0,0 mm 13,1 km/h (3 Bft) W 270 0 min 6,0 C 11,3 km/h (2 Bft)
22.04.2016 16:59 16,8 C 18,1 C 49 % 1013,9 hPa 0,0 mm 13,1 km/h (3 Bft) W 270 0 min 6,0 C 11,3 km/h (2 Bft)
22.04.2016 17:00 16,8 C 18,1 C 49 % 1013,9 hPa 0,0 mm 13,1 km/h (3 Bft) W 270 0 min 6,0 C 11,3 km/h (2 Bft)
22.04.2016 17:05 17,0 C 18,8 C 48 % 1013,9 hPa 0,0 mm 13,7 km/h (3 Bft) NW 315 0 min 5,9 C 7,7 km/h (2 Bft)
22.04.2016 17:10 17,0 C 18,9 C 47 % 1013,9 hPa 0,0 mm 13,1 km/h (3 Bft) NW 315 0 min 5,6 C 22,1 km/h (4 Bft)
22.04.2016 17:15 17,0 C 18,9 C 48 % 1013,7 hPa 0,0 mm 11,0 km/h (2 Bft) NW 315 0 min 5,9 C 14,3 km/h (3 Bft)
22.04.2016 17:20 16,9 C 18,7 C 49 % 1013,7 hPa 0,0 mm 9,8 km/h (2 Bft) NW 315 0 min 6,1 C 9,2 km/h (2 Bft)
22.04.2016 17:25 16,9 C 18,3 C 49 % 1013,7 hPa 0,0 mm 8,6 km/h (2 Bft) N 360 0 min 6,1 C 10,7 km/h (2 Bft)
22.04.2016 17:30 16,7 C 18,1 C 49 % 1013,7 hPa 0,0 mm 8,0 km/h (2 Bft) W-NW 292 0 min 5,9 C 12,2 km/h (2 Bft)
22.04.2016 17:35 16,6 C 17,7 C 50 % 1013,6 hPa 0,0 mm 8,3 km/h (2 Bft) W-NW 292 0 min 6,1 C 6,6 km/h (2 Bft)
22.04.2016 17:40 16,4 C 17,5 C 50 % 1013,6 hPa 0,0 mm 6,6 km/h (2 Bft) NW 315 0 min 6,0 C 6,6 km/h (2 Bft)
22.04.2016 17:46 16,3 C 17,3 C 50 % 1013,6 hPa 0,0 mm 6,3 km/h (2 Bft) N-NW 337 0 min 5,9 C 5,1 km/h (1 Bft)
22.04.2016 17:50 16,2 C 17,2 C 50 % 1013,6 hPa 0,0 mm 6,6 km/h (2 Bft) W 270 0 min 5,8 C 6,0 km/h (2 Bft)
22.04.2016 17:55 16,1 C 16,9 C 50 % 1013,5 hPa 0,0 mm 4,8 km/h (1 Bft) W-NW 292 0 min 5,7 C 10,1 km/h (2 Bft)
22.04.2016 18:00 16,0 C 16,9 C 50 % 1013,5 hPa 0,0 mm 3,6 km/h (1 Bft) W-SW 247 0 min 5,6 C 0,0 km/h (0 Bft)
22.04.2016 18:05 15,9 C 16,7 C 53 % 1013,5 hPa 0,0 mm 3,0 km/h (1 Bft) W 270 0 min 6,3 C 6,3 km/h (2 Bft)
22.04.2016 18:10 15,8 C 16,7 C 53 % 1013,5 hPa 0,0 mm 2,1 km/h (1 Bft) SW 225 0 min 6,2 C 3,3 km/h (1 Bft)
22.04.2016 18:15 15,6 C 16,4 C 53 % 1013,2 hPa 0,0 mm 2,1 km/h (1 Bft) S 180 0 min 6,1 C 0,0 km/h (0 Bft)
22.04.2016 18:20 15,5 C 16,3 C 54 % 1013,2 hPa 0,0 mm 0,6 km/h (0 Bft) S-SW 202 0 min 6,2 C 0,0 km/h (0 Bft)
22.04.2016 18:25 15,5 C 16,4 C 54 % 1013,2 hPa 0,0 mm 0,0 km/h (0 Bft) SO 135 0 min 6,2 C 0,0 km/h (0 Bft)
22.04.2016 18:30 15,6 C 16,5 C 54 % 1013,2 hPa 0,0 mm 0,3 km/h (0 Bft) W-SW 247 0 min 6,3 C 4,2 km/h (1 Bft)
22.04.2016 18:35 15,6 C 16,6 C 54 % 1013,1 hPa 0,0 mm 1,8 km/h (1 Bft) W-SW 247 0 min 6,3 C 0,0 km/h (0 Bft)
22.04.2016 18:40 15,6 C 16,5 C 55 % 1013,1 hPa 0,0 mm 1,5 km/h (1 Bft) W-NW 292 0 min 6,6 C 0,0 km/h (0 Bft)
22.04.2016 18:45 15,6 C 16,4 C 55 % 1013,1 hPa 0,0 mm 2,4 km/h (1 Bft) W 270 0 min 6,6 C 7,5 km/h (2 Bft)
22.04.2016 18:50 15,5 C 16,3 C 53 % 1013,1 hPa 0,0 mm 3,6 km/h (1 Bft) W 270 0 min 6,0 C 9,8 km/h (2 Bft)
22.04.2016 18:55 15,3 C 15,7 C 51 % 1012,9 hPa 0,0 mm 7,7 km/h (2 Bft) W 270 0 min 5,2 C 7,7 km/h (2 Bft)
22.04.2016 19:00 15,0 C 15,5 C 51 % 1012,9 hPa 0,0 mm 6,0 km/h (2 Bft) W-NW 292 0 min 4,9 C 3,0 km/h (1 Bft)
22.04.2016 19:05 14,8 C 15,3 C 50 % 1012,9 hPa 0,0 mm 2,1 km/h (1 Bft) W-SW 247 0 min 4,5 C 0,0 km/h (0 Bft)
22.04.2016 19:10 14,7 C 15,1 C 49 % 1012,9 hPa 0,0 mm 0,9 km/h (0 Bft) SW 225 0 min 4,1 C 0,0 km/h (0 Bft)
22.04.2016 19:15 14,5 C 14,9 C 49 % 1012,9 hPa 0,0 mm 0,6 km/h (0 Bft) W-SW 247 0 min 3,9 C 0,0 km/h (0 Bft)
22.04.2016 19:20 14,3 C 14,7 C 52 % 1012,9 hPa 0,0 mm 2,4 km/h (1 Bft) SO 135 0 min 4,6 C 0,0 km/h (0 Bft)
22.04.2016 19:25 13,9 C 14,4 C 56 % 1012,9 hPa 0,0 mm 1,8 km/h (1 Bft) S-SO 157 0 min 5,3 C 0,0 km/h (0 Bft)
22.04.2016 19:30 13,9 C 14,3 C 57 % 1012,9 hPa 0,0 mm 1,2 km/h (1 Bft) S-SO 157 0 min 5,5 C 0,0 km/h (0 Bft)
22.04.2016 19:35 13,6 C 13,9 C 59 % 1012,6 hPa 0,0 mm 0,6 km/h (0 Bft) W-SW 247 0 min 5,7 C 4,2 km/h (1 Bft)
22.04.2016 19:40 13,5 C 13,8 C 59 % 1012,6 hPa 0,0 mm 0,9 km/h (0 Bft) SO 135 0 min 5,6 C 0,0 km/h (0 Bft)
22.04.2016 19:45 13,4 C 13,5 C 59 % 1012,6 hPa 0,0 mm 1,8 km/h (1 Bft) S-SW 202 0 min 5,6 C 10,7 km/h (2 Bft)
22.04.2016 19:50 13,3 C 13,4 C 59 % 1012,6 hPa 0,0 mm 1,8 km/h (1 Bft) S-SO 157 0 min 5,5 C 0,0 km/h (0 Bft)
22.04.2016 19:55 13,2 C 13,3 C 59 % 1012,4 hPa 0,0 mm 4,5 km/h (1 Bft) S 180 0 min 5,4 C 8,3 km/h (2 Bft)
22.04.2016 19:58 13,3 C 13,5 C 59 % 1012,4 hPa 0,0 mm 5,1 km/h (1 Bft) S 180 0 min 5,5 C 3,9 km/h (1 Bft)
22.04.2016 20:00 13,3 C 13,5 C 59 % 1012,4 hPa 0,0 mm 5,1 km/h (1 Bft) S 180 0 min 5,5 C 3,9 km/h (1 Bft)
22.04.2016 20:05 13,0 C 13,2 C 59 % 1012,4 hPa 0,0 mm 3,0 km/h (1 Bft) S-SW 202 0 min 5,2 C 0,0 km/h (0 Bft)
22.04.2016 20:10 13,0 C 13,2 C 59 % 1012,4 hPa 0,0 mm 2,1 km/h (1 Bft) S 180 0 min 5,2 C 6,0 km/h (2 Bft)
22.04.2016 20:15 13,0 C 13,0 C 59 % 1012,2 hPa 0,0 mm 2,1 km/h (1 Bft) S-SO 157 0 min 5,2 C 3,9 km/h (1 Bft)
22.04.2016 20:20 12,9 C 12,9 C 61 % 1012,2 hPa 0,0 mm 1,8 km/h (1 Bft) S 180 0 min 5,6 C 3,3 km/h (1 Bft)
22.04.2016 20:25 12,7 C 12,8 C 62 % 1012,2 hPa 0,0 mm 1,5 km/h (1 Bft) S-SO 157 0 min 5,6 C 0,0 km/h (0 Bft)
22.04.2016 20:30 12,6 C 12,6 C 62 % 1012,2 hPa 0,0 mm 1,5 km/h (1 Bft) S-SO 157 0 min 5,5 C 4,2 km/h (1 Bft)
22.04.2016 20:35 12,4 C 12,4 C 64 % 1012,4 hPa 0,0 mm 2,4 km/h (1 Bft) SO 135 0 min 5,8 C 0,0 km/h (0 Bft)
22.04.2016 20:40 12,3 C 12,4 C 65 % 1012,4 hPa 0,0 mm 1,8 km/h (1 Bft) S-SO 157 0 min 5,9 C 0,0 km/h (0 Bft)
22.04.2016 20:45 12,1 C 12,3 C 65 % 1012,4 hPa 0,0 mm 1,2 km/h (1 Bft) W-SW 247 0 min 5,7 C 0,0 km/h (0 Bft)
22.04.2016 20:50 11,9 C 12,2 C 66 % 1012,4 hPa 0,0 mm 1,2 km/h (1 Bft) NW 315 0 min 5,8 C 0,0 km/h (0 Bft)
22.04.2016 20:55 12,0 C 12,1 C 66 % 1012,5 hPa 0,0 mm 3,0 km/h (1 Bft) S 180 0 min 5,8 C 5,4 km/h (1 Bft)
22.04.2016 21:00 11,9 C 12,1 C 67 % 1012,5 hPa 0,0 mm 4,5 km/h (1 Bft) S 180 0 min 6,0 C 6,0 km/h (2 Bft)
22.04.2016 21:05 11,8 C 12,0 C 67 % 1012,5 hPa 0,0 mm 3,0 km/h (1 Bft) S 180 0 min 5,9 C 0,0 km/h (0 Bft)
22.04.2016 21:10 11,7 C 12,0 C 68 % 1012,5 hPa 0,0 mm 2,4 km/h (1 Bft) S 180 0 min 6,0 C 0,0 km/h (0 Bft)
22.04.2016 21:15 11,5 C 11,7 C 68 % 1012,6 hPa 0,0 mm 2,4 km/h (1 Bft) S-SW 202 0 min 5,8 C 0,0 km/h (0 Bft)
22.04.2016 21:20 11,4 C 11,6 C 68 % 1012,6 hPa 0,0 mm 2,1 km/h (1 Bft) S-SO 157 0 min 5,7 C 3,0 km/h (1 Bft)
22.04.2016 21:25 11,4 C 11,5 C 69 % 1012,6 hPa 0,0 mm 2,4 km/h (1 Bft) S 180 0 min 5,9 C 7,7 km/h (2 Bft)
22.04.2016 21:30 11,3 C 11,5 C 69 % 1012,6 hPa 0,0 mm 3,0 km/h (1 Bft) S 180 0 min 5,8 C 6,6 km/h (2 Bft)
22.04.2016 21:35 11,3 C 11,6 C 69 % 1012,6 hPa 0,0 mm 5,7 km/h (1 Bft) S-SO 157 0 min 5,8 C 7,2 km/h (2 Bft)
22.04.2016 21:40 11,3 C 11,5 C 69 % 1012,6 hPa 0,0 mm 4,8 km/h (1 Bft) S 180 0 min 5,8 C 3,3 km/h (1 Bft)
22.04.2016 21:45 11,1 C 11,3 C 69 % 1012,6 hPa 0,0 mm 1,8 km/h (1 Bft) S-SO 157 0 min 5,6 C 0,0 km/h (0 Bft)
22.04.2016 21:50 11,1 C 11,2 C 69 % 1012,6 hPa 0,0 mm 0,6 km/h (0 Bft) S-SO 157 0 min 5,6 C 0,0 km/h (0 Bft)
22.04.2016 21:55 11,1 C 11,1 C 69 % 1012,7 hPa 0,0 mm 0,0 km/h (0 Bft) S-SO 157 0 min 5,6 C 0,0 km/h (0 Bft)
22.04.2016 22:00 11,1 C 11,1 C 69 % 1012,7 hPa 0,0 mm 0,3 km/h (0 Bft) S-SO 157 0 min 5,6 C 3,0 km/h (1 Bft)
22.04.2016 22:05 10,9 C 11,0 C 70 % 1012,7 hPa 0,0 mm 0,3 km/h (0 Bft) SO 135 0 min 5,6 C 0,0 km/h (0 Bft)
22.04.2016 22:10 10,8 C 10,9 C 71 % 1012,7 hPa 0,0 mm 0,3 km/h (0 Bft) SO 135 0 min 5,8 C 0,0 km/h (0 Bft)
22.04.2016 22:15 10,8 C 10,8 C 71 % 1012,3 hPa 0,0 mm 0,0 km/h (0 Bft) S-SO 157 0 min 5,8 C 0,0 km/h (0 Bft)
22.04.2016 22:20 10,6 C 10,7 C 72 % 1012,3 hPa 0,0 mm 0,0 km/h (0 Bft) S-SO 157 0 min 5,8 C 0,0 km/h (0 Bft)
22.04.2016 22:25 10,5 C 10,5 C 72 % 1012,3 hPa 0,0 mm 0,0 km/h (0 Bft) O-SO 112 0 min 5,7 C 0,0 km/h (0 Bft)
22.04.2016 22:30 10,5 C 10,5 C 72 % 1012,3 hPa 0,0 mm 0,0 km/h (0 Bft) O-SO 112 0 min 5,7 C 0,0 km/h (0 Bft)
22.04.2016 22:35 10,4 C 10,3 C 73 % 1012,2 hPa 0,0 mm 0,0 km/h (0 Bft) O-SO 112 0 min 5,8 C 0,0 km/h (0 Bft)
22.04.2016 22:40 10,3 C 10,2 C 74 % 1012,2 hPa 0,0 mm 0,0 km/h (0 Bft) O-SO 112 0 min 5,9 C 0,0 km/h (0 Bft)
22.04.2016 22:45 10,1 C 9,9 C 75 % 1012,2 hPa 0,0 mm 0,0 km/h (0 Bft) O-SO 112 0 min 5,9 C 0,0 km/h (0 Bft)
22.04.2016 22:50 10,0 C 9,9 C 72 % 1012,2 hPa 0,0 mm 0,0 km/h (0 Bft) O-SO 112 0 min 5,2 C 0,0 km/h (0 Bft)
22.04.2016 22:55 10,0 C 9,8 C 75 % 1012,2 hPa 0,0 mm 0,6 km/h (0 Bft) O-NO 67 0 min 5,8 C 0,0 km/h (0 Bft)
22.04.2016 22:58 9,5 C 9,4 C 74 % 1012,2 hPa 0,0 mm 0,6 km/h (0 Bft) S-SO 157 0 min 5,1 C 0,0 km/h (0 Bft)
22.04.2016 23:01 9,5 C 9,4 C 74 % 1012,2 hPa 0,0 mm 0,6 km/h (0 Bft) S-SO 157 0 min 5,1 C 0,0 km/h (0 Bft)
22.04.2016 23:05 9,6 C 9,3 C 75 % 1012,2 hPa 0,0 mm 1,5 km/h (1 Bft) S 180 0 min 5,4 C 5,4 km/h (1 Bft)
22.04.2016 23:10 9,8 C 9,5 C 76 % 1012,2 hPa 0,0 mm 1,5 km/h (1 Bft) SO 135 0 min 5,8 C 0,0 km/h (0 Bft)
22.04.2016 23:15 9,0 C 8,8 C 75 % 1012,1 hPa 0,0 mm 0,6 km/h (0 Bft) S-SO 157 0 min 4,8 C 0,0 km/h (0 Bft)
22.04.2016 23:20 8,9 C 8,7 C 76 % 1012,1 hPa 0,0 mm 0,0 km/h (0 Bft) S 180 0 min 4,9 C 0,0 km/h (0 Bft)
22.04.2016 23:25 8,7 C 8,5 C 77 % 1012,1 hPa 0,0 mm 0,9 km/h (0 Bft) S-SO 157 0 min 4,9 C 3,3 km/h (1 Bft)
22.04.2016 23:30 8,9 C 8,6 C 78 % 1012,1 hPa 0,0 mm 0,9 km/h (0 Bft) S 180 0 min 5,3 C 0,0 km/h (0 Bft)
22.04.2016 23:35 8,8 C 8,9 C 76 % 1012,1 hPa 0,0 mm 3,3 km/h (1 Bft) S-SO 157 0 min 4,8 C 4,5 km/h (1 Bft)
22.04.2016 23:40 8,4 C 8,4 C 77 % 1012,1 hPa 0,0 mm 3,9 km/h (1 Bft) S 180 0 min 4,6 C 4,8 km/h (1 Bft)
22.04.2016 23:45 8,2 C 8,3 C 76 % 1012,1 hPa 0,0 mm 2,7 km/h (1 Bft) S-SO 157 0 min 4,2 C 0,0 km/h (0 Bft)
22.04.2016 23:50 8,0 C 8,0 C 76 % 1012,1 hPa 0,0 mm 2,1 km/h (1 Bft) O 90 0 min 4,0 C 0,0 km/h (0 Bft)
22.04.2016 23:55 8,2 C 8,2 C 77 % 1012,0 hPa 0,0 mm 1,2 km/h (1 Bft) SO 135 0 min 4,4 C 0,0 km/h (0 Bft)
_ Min-Zeit 06:45 05:25 15:50 23:55 - 23:20 - - - 05:35 23:55
Minimum _ 3,2 C 2,9 C 46 % 1012,0 hPa - 0,0 km/h (0 Bft) - - - 0,8 C 0,0 km/h (0 Bft)
_ Max-Zeit 15:25 12:45 06:30 10:10 23:55 13:00 - - 15:50 12:55 13:25
Maximum _ 19,0 C 23,2 C 89 % 1017,9 hPa 0,0 mm 16,4 km/h
W-SW (3 Bft)
- - 5 min 8,8 C 34,3 km/h
W (5 Bft)
Durchschnitt _ 11,4 C 13,0 C 67 % 1015,6 hPa #0,0 mm 4,5 km/h (1 Bft) W - #4:10 h 5,1 C 6,3 km/h (2 Bft)